Terug naar catalogus

OPS 9346

IDSCS 24

LostMilitairMEO
NORAD 3289·PAYLOAD·🇺🇸 United States

Gelanceerd Jun 13, 1968 vanaf Cape Canaveral Space Force Station

Loading…

Volgende Passages (komende 24 uur)

TLE

VerouderdSource: Space-Track

Epoch: Jul 23, 2026, 03:30 UTC

1  3289U 68050F   26204.14623148 -.00000115  00000-0  00000+0 0  9991
2  3289   7.1539  52.9632 0046102 141.5698  76.0176  1.07288139 51038

Volg OPS 9346 in realtime met AllMySat

Download on the App Store